Regional Weather Roundup
Issued by NWS

Home | Current Version | Previous Version | Graphics & Text | Print | Product List | Glossary Off
Versions: 1 2 3 4 5 6 7 8 9 10 11 12 13 14 15 16 17 18 19 20 21 22 23 24 25 26 27 28 29 30 31 32 33 34 35 36 37 38 39 40 41 42 43 44 45 46 47 48 49 50

000
ASUS45 KABQ 261810
RWRNM
NEW MEXICO REGIONAL WEATHER ROUNDUP
NATIONAL WEATHER SERVICE ALBUQUERQUE NM
1200 PM MDT FRI AUG 26 2016

NOTE: "FAIR" MEANS FEW OR NO CLOUDS BELOW 12,000 FEET AGL WITH NO
       SIGNIFICANT WEATHER OR OBSTRUCTIONS TO VISION.

      THIS PRODUCT IS RELEASED AS TWO VERSIONS.  ONE VERSION NEAR
      THE TOP OF THE HOUR CONTAINING PRELIMINARY DATA FROM ALBUQUERQUE
      AND OTHER STATIONS.  A FINAL VERSION WITH ADDITIONAL DATA IS
      ISSUED ABOUT 10 MINUTES AFTER THE HOUR.

NMZ501-503-504-510>518-261900-
NORTHWEST PLATEAU/NORTHCENTRAL MOUNTAINS

CITY           SKY/WX    TMP DP  RH WIND       PRES   REMARKS
FARMINGTON     FAIR      71  45  39 MISG      30.23F
6HR MIN TEMP:  54; 6HR MAX TEMP:  72;

LOS ALAMOS     CLOUDY    64  47  53 S12       30.32F
SANTA FE       FAIR      69  51  52 S7        30.27F
6HR MIN TEMP:  54; 6HR MAX TEMP:  69;

TAOS           PTSUNNY   61  46  59 CALM      30.33F
ANGEL FIRE     CLOUDY    55  44  66 W13       30.38F

$$
NMZ402-403-502-505>509-261900-
WESTCENTRAL MOUNTAINS/SOUTHWEST MOUNTAINS

CITY           SKY/WX    TMP DP  RH WIND       PRES   REMARKS
GALLUP         FAIR      66  46  48 VRB5      30.30F
6HR MIN TEMP:  49; 6HR MAX TEMP:  67;

GRANTS         PTSUNNY   68  46  44 CALM      30.31F
SILVER CITY    FAIR      74  51  45 CALM      30.23S

$$
NMZ407-409-411-412-261900-
SOUTHERN DESERTS

CITY           SKY/WX    TMP DP  RH WIND       PRES   REMARKS
DEMING         FAIR      81  55  40 VRB7      30.15F
6HR MIN TEMP:  60; 6HR MAX TEMP:  81;

LAS CRUCES     FAIR      81  54  39 S9        30.18F
HOLLOMAN AFB   SUNNY     82  52  35 VRB6      30.14F
ALAMOGORDO     FAIR      81  50  34 S9        30.16F
T OR C         FAIR      77  52  41 VRB3      30.17F
6HR MIN TEMP:  62; 6HR MAX TEMP:  77;


$$
NMZ519>523-261900-
CENTRAL VALLEYS/CENTRAL HIGHLANDS

CITY           SKY/WX    TMP DP  RH WIND       PRES   REMARKS
ALBUQUERQUE    PTSUNNY   71  50  47 W6        30.23F
6HR MIN TEMP:  60; 6HR MAX TEMP:  72;

MORIARTY ARPT  FAIR      68  52  56 S9        30.29F
6HR MIN TEMP:  54; 6HR MAX TEMP:  68;

CLINES CORNERS PTSUNNY   66  51  58 SW10      30.33F
6HR MIN TEMP:  50; 6HR MAX TEMP:  66;

BELEN          FAIR      72  46  38 CALM      30.23F
6HR MIN TEMP:  57; 6HR MAX TEMP:  72;

SOCORRO        FAIR      78  47  33 CALM      30.20F
6HR MIN TEMP:  61; 6HR MAX TEMP:  79;


$$
NMZ524>526-539-540-261900-
SOUTHCENTRAL MOUNTAINS

CITY           SKY/WX    TMP DP  RH WIND       PRES   REMARKS
RUIDOSO        LGT RAIN  63  50  63 SW5       30.34S

$$
NMZ527>531-261900-
NORTHEAST HIGHLANDS/NORTHEAST PLAINS

CITY           SKY/WX    TMP DP  RH WIND       PRES   REMARKS
LAS VEGAS      FAIR      64  53  67 S17       30.30F
6HR MIN TEMP:  49; 6HR MAX TEMP:  64;

RATON          FAIR      68  51  54 SW8       30.24F
6HR MIN TEMP:  52; 6HR MAX TEMP:  68; 6HR PCP: TRACE;

CLAYTON        FAIR      77  51  40 SW18G28   30.16F
6HR MIN TEMP:  58; 6HR MAX TEMP:  77;


$$
NMZ532>537-261900-
EASTCENTRAL PLAINS

CITY           SKY/WX    TMP DP  RH WIND       PRES   REMARKS
TUCUMCARI      FAIR      80  55  42 S7        30.15F
6HR MIN TEMP:  61; 6HR MAX TEMP:  80; 6HR PCP: TRACE;

CANNON AFB     FAIR      75  59  57 S9        30.19F
6HR MIN TEMP:  60; 6HR MAX TEMP:  75;

CLOVIS AIRPORT FAIR      75  55  50 S9        30.19F

$$
NMZ028-029-538-261900-
SOUTHEAST PLAINS

CITY           SKY/WX    TMP DP  RH WIND       PRES   REMARKS
ROSWELL        FAIR      75  60  59 S7        30.17F
6HR MIN TEMP:  60; 6HR MAX TEMP:  76;

ARTESIA        FAIR      75  64  69 CALM      30.17F
CARLSBAD       FAIR      75  64  68 CALM      30.13F
6HR MIN TEMP:  61; 6HR MAX TEMP:  76;

HOBBS          PTSUNNY   75  63  64 S5        30.18F


$$



USA.gov is the U.S. government's official web portal to all federal, state and local government web resources and services.